SCP
0 0 0 0 0 0 0 0 0 0 0 0 0 0 0 0 0 0 0 0 0 0 0 0 0 0 0 0 0 0 0 0 0 0 0 0 0 0 0 0 0 0 0
0 0 0 0 0 0 0 0 0 0 0 0 0 0 0 0 0 0 0 0 0 0 0 0 0 0 0 0 0 0 0 0 0 0 0 0 0 0 0 0 0 0 0
0 0 0 0 0 0 0 0 0 0 0 0 0 0 0 0 0 0 0 0 0 0 0 0 0 0 0 0 0 0 0 0 0 0 0 0 0 0 0 0 0 0 0
0 0 0 0 0 0 0 0 0 0 0 0 0 0 0 0 0 0 0 0 0 0 0 0 0 0 0 0 0 0 0 0 0 0 0 0 0 0 0 0 0 0 0
0 0 0 0 0 0 0 0 0 0 0 0 0 0 0 0 0 0 0 0 0 0 0 0 0 0 0 0 0 0 0 0 0 0 0 0 0 0 0 0 0 0 0
0 0 0 0 0 0 0 0 0 0 0 0 0 0 0 0 0 0 0 0 0 0 0 0 0 0 0 0 0 0 0 0 0 0 0 0 0 0 0 0 0 0 0
0 0 0 0 0 0 0 0 0 0 0 0 0 0 0 0 0 0 0 0 0 0 0 0 0 0 0 0 0 0 0 0 0 0 0 0 0 0 0 0 0 0 0
0 0 0 0 0 0 0 0 0 0 0 0 0 0 0 0 0 0 0 0 0 0 0 0 0 0 0 0 0 0 0 0 0 0 0 0 0 0 0 0 0 0 0
0 0 0 0 0 0 0 0 0 0 0 0 0 0 0 0 0 0 0 0 0 0 0 0 0 0 0 0 0 0 0 0 0 0 0 0 0 0 0 0 0 0 0
0 0 0 0 0 0 0 0 0 0 0 0 0 0 0 0 0 0 0 0 0 0 0 0 0 0 0 0 0 0 0 0 0 0 0 0 0 0 0 0 0 0 0
0 0 0 0 0 0 0 0 0 0 0 0 0 0 0 0 0 0 0 0 0 0 0 0 0 0 0 0 0 0 0 0 0 0 0 0 0 0 0 0 1 1 1
0 0 0 0 0 0 0 0 0 0 0 0 0 0 0 0 0 0 0 0 0 0 0 0 0 0 0 0 0 0 0 0 0 0 0 0 0 0 0 1 1 1 1
0 0 0 0 0 0 0 0 0 0 0 0 0 0 0 0 0 0 0 0 0 0 0 0 0 0 0 0 0 0 0 0 0 0 0 0 0 0 0 0 1 1 1
0 0 0 0 0 0 0 0 0 0 0 0 0 0 0 0 0 0 0 0 0 0 0 0 0 0 0 0 0 0 0 0 0 0 0 0 0 0 0 0 0 0 0
0 0 0 0 0 0 0 0 0 0 0 0 0 0 0 0 0 0 0 0 0 0 0 0 0 0 0 0 0 0 0 0 0 0 0 0 0 0 0 0 0 0 0
0 0 0 0 0 0 0 0 0 0 0 0 0 0 0 0 0 0 0 0 0 0 0 0 0 0 0 0 0 0 0 0 0 0 0 0 0 0 0 0 0 0 0
0 0 0 0 0 0 0 0 0 0 0 0 0 0 0 0 0 0 0 0 0 0 0 0 0 0 0 0 0 0 0 0 0 0 0 0 0 0 0 0 0 0 0
0 0 0 0 0 0 0 0 0 0 0 0 0 0 0 0 0 0 0 0 0 0 0 0 0 0 0 0 0 0 0 0 0 0 0 0 0 0 0 0 0 0 0
0 0 0 0 0 0 0 0 0 0 0 0 0 0 0 0 0 0 0 0 0 0 0 0 0 0 0 0 0 0 0 0 0 0 0 0 0 0 0 0 0 0 0
0 0 0 0 0 0 0 0 0 0 0 0 0 0 0 0 0 0 0 0 0 0 0 0 0 0 0 0 0 0 0 0 0 0 0 0 0 0 0 0 0 0 0
0 0 0 0 0 0 0 0 0 0 0 0 0 0 0 0 0 0 0 0 0 0 0 0 0 0 0 0 0 0 0 0 0 0 0 0 0 0 0 0 0 0 0
0 0 0 0 0 0 0 0 0 0 0 0 0 0 0 0 0 0 0 0 0 0 0 0 0 0 0 0 0 0 0 0 0 0 0 0 0 0 0 0 0 0 0
0 0 0 0 0 0 0 0 0 0 0 0 0 0 0 0 0 0 0 0 0 0 0 0 0 0 0 0 0 0 0 0 0 0 0 0 0 0 0 0 0 0 0
0 0 0 0 0 0 0 0 0 0 0 0 0 0 0 0 0 0 0 0 0 0 0 0 0 0 0 0 0 0 0 0 0 0 0 0 0 0 0 0 0 0 0
0 0 0 0 0 0 0 0 0 0 0 0 0 0 0 0 0 0 0 0 0 0 0 0 0 0 0 0 0 0 0 0 0 0 0 0 0 0 0 0 0 0 0
0 0 0 0 0 0 0 0 0 0 0 0 0 0 0 0 0 0 0 0 0 0 0 0 0 0 0 0 0 0 0 0 0 0 0 0 0 0 0 0 0 0 0
Wind_Speed
3 4 4 3 4 3 3 3 4 4 4 4 4 4 4 4 4 6 5 12 13 12 12 12 12 12 12 12 12 11 11 12 12 12 12 12 13 12 11 10 9 9 8
4 5 5 4 4 4 3 3 4 3 3 3 2 3 3 3 4 6 5 7 11 11 11 11 12 12 12 12 12 12 12 12 12 12 13 13 13 13 12 11 10 10 9
6 6 5 4 3 3 4 4 4 3 3 3 3 3 2 3 2 4 6 4 4 7 8 9 11 12 12 13 12 12 12 12 12 13 13 14 14 14 15 14 13 12 12
8 6 5 4 4 4 4 3 3 3 3 4 3 3 2 1 2 3 4 5 3 3 3 6 9 10 11 12 13 13 13 12 13 14 14 15 15 16 16 16 15 15 14
9 7 5 4 5 4 4 4 4 3 3 3 3 1 1 0 2 2 3 4 4 2 1 3 8 9 10 12 13 13 13 13 14 14 15 16 16 17 17 17 17 17 16
9 8 6 6 6 4 4 4 3 3 3 2 3 1 0 1 1 1 2 2 3 3 2 2 3 5 10 13 13 12 12 13 14 15 16 17 17 18 18 19 19 18 18
10 8 7 7 6 4 4 4 3 4 3 3 3 3 2 1 1 1 2 1 0 1 1 1 2 2 3 10 12 12 13 14 15 16 17 18 19 19 20 20 20 20 20
9 8 9 7 6 5 6 5 3 3 2 3 2 2 3 3 2 1 1 1 0 1 1 2 2 2 2 2 7 12 13 14 15 17 18 20 21 21 21 22 22 22 22
8 8 9 8 7 6 5 5 4 4 2 2 3 3 2 1 4 4 2 0 0 1 1 2 3 2 3 3 3 6 12 14 15 18 21 22 22 22 22 22 23 23 24
8 9 9 9 7 6 6 5 5 3 2 2 1 2 1 2 0 4 4 3 3 3 4 3 3 3 3 3 4 8 13 13 16 20 23 24 24 24 23 23 24 24 25
8 10 10 8 8 6 7 6 5 4 2 2 2 1 1 1 2 2 4 4 4 4 4 5 4 4 4 4 2 6 13 15 19 22 25 25 25 25 24 25 25 25 25
7 9 10 8 7 7 6 6 5 4 3 2 1 1 1 0 1 1 3 4 5 4 5 5 6 5 4 4 4 10 13 16 20 24 25 26 26 26 26 26 27 27 27
8 9 10 7 7 7 6 5 4 4 2 2 0 0 1 0 1 1 3 4 5 4 5 5 4 3 3 1 2 10 14 19 22 25 26 27 27 27 27 27 28 27 27
9 10 10 9 8 8 7 5 4 3 2 1 1 1 1 2 1 1 2 3 6 4 3 5 5 4 3 3 7 16 8 20 24 26 27 27 28 28 28 28 28 28 28
11 11 11 10 8 7 7 5 3 3 3 2 1 0 1 1 1 2 2 2 3 6 5 4 4 5 6 5 11 7 6 18 25 26 27 28 28 29 29 29 29 28 28
13 13 11 9 8 7 6 4 2 3 2 1 2 1 2 1 2 2 2 3 3 5 8 4 4 6 7 9 16 10 8 24 24 27 28 29 29 29 29 29 29 29 29
13 12 11 9 8 6 5 4 3 3 1 1 1 2 2 1 2 2 3 3 4 4 10 8 5 5 7 9 10 8 9 9 10 24 28 28 28 28 29 29 30 30 29
12 11 9 8 7 6 5 3 1 1 1 2 2 2 3 2 3 3 3 4 4 5 8 11 6 5 8 9 9 9 11 11 9 21 26 27 28 29 29 30 30 30 30
12 10 9 8 7 6 4 3 2 2 2 3 3 3 3 2 3 3 4 4 4 6 5 8 9 6 6 8 10 11 11 9 12 16 21 24 27 29 30 30 30 30 29
11 10 9 8 7 5 4 3 3 3 4 4 3 3 4 4 4 4 4 4 5 5 6 7 9 9 8 8 7 8 9 6 8 11 17 20 24 28 29 30 30 30 30
12 10 10 8 5 4 5 5 4 4 5 5 5 4 4 5 8 7 6 5 5 5 6 7 9 10 9 7 7 7 11 9 9 10 10 10 11 10 13 21 25 27 29
10 9 8 6 5 4 6 4 3 3 4 5 6 4 4 6 10 13 15 15 14 10 8 8 10 12 12 9 8 8 10 13 14 5 7 12 10 11 10 9 21 29 29
9 8 6 5 5 6 5 3 6 4 5 6 6 4 5 6 9 4 10 15 14 19 21 14 13 12 12 9 8 10 12 14 16 10 9 15 11 12 10 13 26 29 30
7 6 5 4 4 5 4 3 7 5 5 6 5 5 4 5 6 9 6 5 6 9 15 12 10 10 10 9 11 14 15 13 12 9 7 14 13 12 13 9 21 29 30
6 5 4 3 3 3 4 4 7 3 4 6 5 6 7 5 13 17 9 7 9 9 15 21 22 22 26 27 22 11 8 10 14 13 6 8 11 13 12 12 14 22 23
6 4 3 2 2 1 1 4 6 2 4 4 5 6 11 13 16 17 9 9 11 10 10 11 14 17 15 15 21 11 7 10 13 11 4 4 8 11 11 6 6 7 12
Wind_Direction
166 129 104 104 103 109 104 71 55 45 37 34 21 22 4 5 51 98 81 75 68 64 57 50 41 31 22 15 9 5 3 2 2 2 0 359 357 353 351 351 353 355 356
142 111 99 92 88 86 80 78 74 48 46 29 358 25 10 9 55 105 116 88 81 71 57 45 33 23 14 6 360 354 350 349 348 347 345 343 341 338 331 326 325 325 325
122 114 113 112 113 105 83 60 61 49 46 12 5 41 40 18 29 105 125 126 103 82 62 40 24 14 7 1 355 350 346 343 341 338 337 334 331 328 322 316 311 308 306
125 119 122 124 119 100 88 74 43 51 45 24 356 358 357 68 38 76 93 97 98 83 58 31 14 3 358 353 349 346 344 342 338 334 331 328 326 321 316 311 305 300 297
127 127 128 129 114 99 93 86 58 53 42 7 322 307 349 153 119 95 107 113 118 112 56 12 8 355 346 343 341 340 342 340 336 333 330 326 323 320 315 309 303 297 293
134 130 134 127 112 108 110 111 111 74 43 348 320 321 222 115 143 173 136 129 162 173 134 56 22 356 346 335 334 335 336 334 335 334 330 326 322 318 313 307 302 297 292
140 140 135 125 123 123 119 112 113 88 32 355 10 347 296 220 204 191 145 92 12 162 123 63 50 13 331 332 329 326 329 332 333 332 330 326 322 318 314 308 303 297 292
143 141 133 128 122 114 99 89 86 104 61 32 50 24 358 344 327 276 148 166 292 37 36 23 8 324 316 309 305 320 327 326 326 327 326 323 319 314 309 307 304 300 295
139 135 130 125 125 119 117 112 96 94 118 66 62 85 81 324 322 320 295 119 335 322 307 295 278 278 306 302 297 321 318 317 317 320 321 319 315 310 306 303 301 299 296
135 130 127 127 122 118 120 117 103 97 92 99 78 64 108 129 79 319 320 335 1 339 311 298 294 281 277 274 274 307 312 309 311 316 318 314 310 307 306 305 303 301 298
130 126 125 124 123 121 118 113 106 91 83 88 78 53 28 43 186 223 284 307 325 315 315 305 289 272 261 256 244 289 303 305 308 313 312 308 306 305 305 306 305 303 301
130 126 124 122 119 116 116 117 112 100 89 86 69 82 123 136 309 285 283 298 294 290 298 287 280 264 249 246 264 296 302 303 306 307 305 303 304 305 306 305 303 300 297
143 138 132 127 122 119 120 123 121 124 123 107 49 24 43 328 280 276 281 290 293 298 287 283 294 301 294 322 312 310 305 306 306 304 302 303 304 305 304 301 299 297 295
143 139 133 128 126 125 127 130 128 135 127 153 233 192 233 265 273 271 271 296 303 291 287 296 310 309 334 328 306 316 312 308 305 302 301 304 304 303 301 300 298 296 294
139 136 130 129 129 129 134 139 142 151 151 188 211 41 307 280 282 275 275 266 275 291 292 276 292 334 331 317 312 310 297 303 303 303 304 304 303 301 300 298 297 296 294
137 134 129 126 124 124 127 127 124 120 119 242 180 198 267 292 327 320 303 283 264 273 284 281 301 300 308 314 309 308 298 303 303 302 300 300 300 299 299 298 297 296 293
133 131 129 125 127 131 132 135 157 152 176 269 271 236 244 266 278 278 279 278 273 271 282 286 278 290 301 298 296 288 289 286 288 297 299 298 298 300 300 299 297 295 293
124 124 123 120 119 115 110 111 118 128 228 258 271 272 265 261 267 272 270 268 271 270 280 293 296 294 292 292 291 289 297 296 289 295 299 301 303 302 300 298 296 294 292
120 116 111 108 105 100 91 69 42 2 327 297 280 270 269 274 277 275 280 286 286 292 292 299 301 294 290 291 291 290 290 290 293 300 305 303 300 298 297 297 298 298 297
116 108 102 99 101 103 89 55 22 348 328 316 304 281 262 252 253 257 275 275 279 284 287 289 293 293 288 284 286 295 297 285 293 301 297 294 293 297 297 298 298 297 295
107 103 102 102 104 102 78 53 13 347 338 325 312 298 287 292 291 285 280 265 276 278 281 286 291 294 295 295 295 293 298 300 292 286 282 284 289 287 289 291 294 292 291
102 102 105 111 112 99 85 44 354 337 326 313 303 304 314 307 296 301 306 306 303 302 300 292 294 295 296 292 290 294 299 300 297 272 284 293 287 286 285 281 289 294 295
107 106 106 105 107 118 103 31 343 338 308 292 288 289 292 293 307 306 301 302 303 303 302 297 293 291 292 289 288 289 288 288 289 292 295 292 289 285 284 290 296 297 298
108 108 108 105 110 140 117 29 349 346 310 298 295 289 288 292 298 302 292 293 284 290 292 293 285 284 290 287 279 286 289 289 286 283 271 284 291 290 292 286 293 293 293
102 102 101 98 90 121 112 22 356 326 308 312 320 328 322 302 305 311 314 301 295 292 301 301 300 300 301 302 301 299 294 295 295 293 278 274 288 296 292 287 284 288 291
102 108 113 117 115 117 72 359 349 330 318 318 318 316 317 313 312 316 312 300 301 298 294 297 299 299 296 294 300 297 291 294 295 296 281 272 293 307 299 264 261 283 288